This demonstration page uses our WeatherBlox Daily Observations layout. Learn more.

Left ArrowRight Arrow

31.31129, -92.44514

Hourly Observations for August 27, 2016

Temp ( °F °C ) Dew Point ( °F °C ) Humidity (%) Winds ( mph kmh ) Pressure ( in mb ) Visibility ( mi km ) Precip ( " mm )
12:53 am 00:53 Mostly Clear 75 23.9 74 23.3 96 96 E 3 6 29.98 1015 8 13 0.00 0.00
1:53 am 01:53 Clear 76 24.4 74 23.3 94 94 ENE 3 6 29.96 1015 8 13 0.00 0.00
2:53 am 02:53 Clear 75 23.9 74 23.3 96 96 Calm 29.96 1015 7 11 0.00 0.00
3:53 am 03:53 Clear with Mist and Fog 75 23.9 74 23.3 96 96 Calm 29.96 1015 6 10 0.00 0.00
4:53 am 04:53 Clear with Mist and Fog 75 23.9 74 23.3 96 96 Calm 29.96 1014 6 10 0.00 0.00
5:53 am 05:53 Clear with Mist and Fog 74 23.3 74 23.3 100 100 ENE 5 7 29.97 1015 6 10 0.00 0.00
6:53 am 06:53 Sunny with Mist and Fog 74 23.3 74 23.3 100 100 Calm 29.98 1015 4 6 0.00 0.00
7:53 am 07:53 Partly Cloudy with Mist and Fog 77 25 75 23.9 94 94 Calm 30.00 1016 6 10 0.00 0.00
8:53 am 08:53 Cloudy 81 27.2 75 23.9 82 82 VRB 3 6 30.01 1016 8 13 0.00 0.00
10:53 am 10:53 Mostly Sunny 87 30.6 73 22.8 63 63 E 7 11 30.01 1016 10 16 0.00 0.00
11:53 am 11:53 Partly Cloudy 86 30 73 22.8 65 65 E 6 9 29.99 1016 10 16 0.00 0.00
12:53 pm 12:53 Sunny 90 32.2 72 22.2 56 56 E 10 17 29.97 1015 10 16 0.00 0.00
1:53 pm 13:53 Mostly Cloudy 87 30.6 72 22.2 61 61 ESE 14 22 29.96 1015 10 16 0.00 0.00
2:53 pm 14:53 Mostly Cloudy with Heavy Rain 78 25.6 72 22.2 82 82 NNE 7 11 29.95 1014 3 5 0.07 1.78
2:58 pm 14:58 Cloudy with Nearby Thunderstorms 76 24.4 72 22.2 88 88 N 7 11 29.94 1014 2 3 0.03 0.76
3:10 pm 15:10 Cloudy with Nearby Thunderstorms 75 23.9 73 22.8 94 94 WSW 8 13 29.94 1014 5 8 0.04 1.02
3:32 pm 15:32 Cloudy with Nearby Thunderstorms 74 23.3 72 22.2 94 94 E 18 30 29.97 1015 2 2 0.17 4.32
3:37 pm 15:37 Cloudy with Strong Thunderstorms 73 22.8 72 22.2 96 96 ENE 13 20 29.97 1015 1 1 0.33 8.38
3:45 pm 15:45 Cloudy with Strong Thunderstorms 73 22.8 72 22.2 96 96 ESE 6 9 29.94 1014 1 2 0.44 11.18
3:53 pm 15:53 Cloudy with Heavy Rain 73 22.8 72 22.2 96 96 Calm 29.95 1014 1 2 0.51 12.95
4:03 pm 16:03 Cloudy with Light Rain 73 22.8 72 22.2 96 96 SSW 5 7 29.94 1014 3 5 0.02 0.51
4:17 pm 16:17 Cloudy with Nearby Thunderstorms 73 22.8 72 22.2 96 96 SSW 8 13 29.94 1014 7 11 0.02 0.51
4:43 pm 16:43 Mostly Cloudy 74 23.3 73 22.8 97 97 WSW 6 9 29.94 1014 8 13 0.03 0.76
4:53 pm 16:53 Mostly Cloudy with Light Rain 74 23.3 73 22.8 97 97 VRB 3 6 29.94 1014 8 13 0.03 0.76
5:07 pm 17:07 Mostly Cloudy with Nearby Thunderstorms 74 23.3 73 22.8 97 97 WNW 5 7 29.94 1014 4 6 0.01 0.25
5:21 pm 17:21 Mostly Cloudy with Rain 74 23.3 73 22.8 97 97 Calm 29.97 1015 3 5 0.03 0.76
5:28 pm 17:28 Mostly Cloudy with Nearby Thunderstorms 74 23.3 73 22.8 97 97 E 8 13 29.97 1015 3 5 0.05 1.27
5:40 pm 17:40 Cloudy with Nearby Thunderstorms 74 23.3 73 22.8 97 97 ENE 7 11 29.97 1015 2 3 0.15 3.81
5:45 pm 17:45 Cloudy with Nearby Thunderstorms 74 23.3 73 22.8 97 97 NNE 8 13 29.97 1015 1 1 0.29 7.37
5:53 pm 17:53 Cloudy with Heavy Rain 74 23.3 73 22.8 97 97 N 5 7 29.98 1015 1 2 0.32 8.13
5:59 pm 17:59 Cloudy with Rain 74 23.3 74 23.3 100 100 Calm 29.97 1015 3 5 0.01 0.25
6:08 pm 18:08 Cloudy with Heavy Rain 74 23.3 74 23.3 100 100 NW 3 6 29.97 1015 2 3 0.04 1.02
6:21 pm 18:21 Cloudy with Heavy Rain 74 23.3 74 23.3 100 100 E 5 7 29.97 1015 3 4 0.10 2.54
6:32 pm 18:32 Cloudy with Heavy Rain 74 23.3 74 23.3 100 100 E 6 9 29.97 1015 3 5 0.14 3.56
6:43 pm 18:43 Cloudy with Heavy Rain 74 23.3 73 22.8 97 97 E 3 6 29.97 1015 2 3 0.19 4.83
6:53 pm 18:53 Cloudy with Rain 73 22.8 73 22.8 100 100 E 5 7 29.98 1015 2 3 0.23 5.84
7:09 pm 19:09 Cloudy with Rain 73 22.8 73 22.8 100 100 N 5 7 29.97 1015 4 6 0.04 1.02
7:53 pm 19:53 Mostly Cloudy with Light Rain 73 22.8 73 22.8 100 100 NW 3 6 29.98 1015 7 11 0.07 1.78
8:53 pm 20:53 Cloudy 73 22.8 73 22.8 100 100 N 5 7 29.98 1015 8 13 0.00 0.03
9:53 pm 21:53 Mostly Cloudy 73 22.8 73 22.8 100 100 Calm 29.97 1015 8 13 0.00 0.00
10:53 pm 22:53 Mostly Clear 74 23.3 73 22.8 97 97 Calm 29.99 1016 9 14 0.00 0.00
11:53 pm 23:53 Clear 73 22.8 73 22.8 100 100 Calm 29.99 1016 8 13 0.00 0.00

Powered by AerisWeather